Weather History for Fort Yukon, AK

Change the Weather History Date:

Tuesday, December 24, 2013

  Actual Average Record
Temperature  
Mean Temperature -30 °F -  
Max Temperature -25 °F -3 °F 10 °F (2005)
Min Temperature -36 °F -17 °F -52 °F (2010)
Degree Days  
Heating Degree Days 95    
Moisture  
Dew Point -22 °F    
Average Humidity 71    
Maximum Humidity 84    
Minimum Humidity 58    
Precipitation  
Precipitation 0.00 in - - ()
Sea Level Pressure  
Sea Level Pressure 30.17 in    
Wind  
Wind Speed 0 mph (North)    
Max Wind Speed 0 mph    
Max Gust Speed -    
Visibility 9 miles    
Events      
Averages and records for this station are not official NWS values.
T = Trace of Precipitation, MM = Missing Value Source: NWS Daily Summary

Daily Weather History Graph

Daily Weather History Graph

Search for Another Location

Airport:

Trip Planner

Search our weather history database for the weather conditions in past years. The results will help you decide how hot, cold, wet, or windy it might be!

Date:

Astronomy

Dec. 24, 2013 Rise Set
Actual Time 11:34 AM AKST 1:47 PM AKST
Civil Twilight 9:42 AM AKST 3:39 PM AKST
Nautical Twilight 8:22 AM AKST 4:59 PM AKST
Astronomical Twilight 7:15 AM AKST 6:06 PM AKST
Moon No Moon Rise 11:52 AM AKST (12/24)
Length of Visible Light 5h 57m
Length of Day
2h 12m
Waning Gibbous, 57% of the Moon is Illuminated
Dec 24
Waning Gibbous
Dec 25
Last Quarter
Jan 1
New
Jan 7
First Quarter
Jan 15
Full

Hourly Weather History & Observations

Time (AKST) Temp. Dew Point Humidity Pressure Visibility Wind Dir Wind Speed Gust Speed Precip Events Conditions
12:16 AM -9.4 °F -16.6 °F 71% 30.14 in 9.0 mi Calm Calm - N/A   Clear
12:36 AM -9.4 °F -18.4 °F 65% 30.14 in 8.0 mi Calm Calm - N/A   Clear
12:56 AM -13.0 °F -20.2 °F 70% 30.15 in 6.0 mi Calm Calm - N/A   Clear
1:16 AM -18.4 °F - N/A% 30.16 in 8.0 mi Calm Calm - N/A   Clear
1:36 AM -16.6 °F -20.2 °F 84% 30.16 in 10.0 mi Calm Calm - N/A   Clear
1:56 AM -16.6 °F -27.4 °F 58% 30.16 in 10.0 mi Calm Calm - N/A   Clear
2:36 AM -16.6 °F - N/A% 30.17 in 8.0 mi Calm Calm - N/A   Clear
3:16 AM -22.0 °F - N/A% 30.17 in 5.0 mi Calm Calm - N/A   Clear
3:36 AM -20.2 °F - N/A% 30.17 in 8.0 mi Calm Calm - N/A   Clear
3:56 AM -23.8 °F - N/A% 30.17 in 9.0 mi Calm Calm - N/A   Clear
4:56 AM -23.8 °F -29.2 °F 76% 30.18 in 8.0 mi Calm Calm - N/A   Clear
5:36 AM -27.4 °F - N/A% 30.19 in 3.0 mi Calm Calm - N/A   Clear
6:16 AM -27.4 °F - N/A% 30.19 in 10.0 mi Calm Calm - N/A   Clear
6:56 AM -27.4 °F - N/A% 30.18 in 9.0 mi Calm Calm - N/A   Clear
7:56 AM -27.4 °F - N/A% 30.19 in 10.0 mi Calm Calm - N/A   Partly Cloudy
8:16 AM -29.2 °F - N/A% 30.19 in 10.0 mi Calm Calm - N/A   Partly Cloudy
8:36 AM -27.4 °F - N/A% 30.19 in 10.0 mi Calm Calm - N/A   Partly Cloudy
9:36 AM -29.2 °F - N/A% 30.20 in 10.0 mi Calm Calm - N/A   Partly Cloudy
9:56 AM -29.2 °F - N/A% 30.19 in 10.0 mi Calm Calm - N/A   Partly Cloudy
10:36 AM -29.2 °F - N/A% 30.19 in 10.0 mi Calm Calm - N/A   Partly Cloudy
10:56 AM -32.8 °F - N/A% 30.20 in 10.0 mi Calm Calm - N/A   Partly Cloudy
11:16 AM -32.8 °F - N/A% 30.20 in 10.0 mi Calm Calm - N/A   Partly Cloudy
11:36 AM -32.8 °F - N/A% 30.21 in 10.0 mi Calm Calm - N/A   Partly Cloudy
11:56 AM -32.8 °F - N/A% 30.21 in 10.0 mi Calm Calm - N/A   Partly Cloudy
12:56 PM -32.8 °F - N/A% 30.19 in 10.0 mi Calm Calm - N/A   Partly Cloudy
1:16 PM -32.8 °F - N/A% 30.19 in 10.0 mi Calm Calm - N/A   Partly Cloudy
1:36 PM -34.6 °F - N/A% 30.19 in 10.0 mi Calm Calm - N/A   Partly Cloudy
1:56 PM -34.6 °F - N/A% 30.19 in 10.0 mi Calm Calm - N/A   Partly Cloudy
2:16 PM -34.6 °F - N/A% 30.18 in 10.0 mi Calm Calm - N/A   Partly Cloudy
2:36 PM -34.6 °F - N/A% 30.19 in 10.0 mi Calm Calm - N/A   Partly Cloudy
2:56 PM -32.8 °F - N/A% 30.18 in 10.0 mi Calm Calm - N/A   Mostly Cloudy
3:16 PM -32.8 °F - N/A% 30.18 in 10.0 mi Calm Calm - N/A   Mostly Cloudy
3:36 PM - - N/A% 30.17 in 10.0 mi Calm Calm - N/A   Mostly Cloudy
3:56 PM -32.8 °F - N/A% 30.17 in 10.0 mi Calm Calm - N/A   Mostly Cloudy
4:16 PM -31.0 °F - N/A% 30.17 in 10.0 mi Calm Calm - N/A   Mostly Cloudy
4:56 PM -29.2 °F - N/A% 30.16 in 10.0 mi Calm Calm - N/A   Mostly Cloudy
5:36 PM -27.4 °F - N/A% 30.15 in 10.0 mi Calm Calm - N/A   Mostly Cloudy
5:56 PM -27.4 °F - N/A% 30.15 in 10.0 mi Calm Calm - N/A   Mostly Cloudy
6:16 PM -29.2 °F - N/A% 30.14 in 10.0 mi Calm Calm - N/A   Mostly Cloudy
7:16 PM -29.2 °F - N/A% 30.13 in 10.0 mi Calm Calm - N/A   Overcast
7:56 PM -32.8 °F - N/A% 30.13 in 10.0 mi Calm Calm - N/A   Overcast
8:56 PM -34.6 °F - N/A% 30.12 in 10.0 mi Calm Calm - N/A   Overcast
9:16 PM -34.6 °F - N/A% 30.12 in 10.0 mi Calm Calm - N/A   Overcast
9:36 PM -34.6 °F - N/A% 30.11 in 10.0 mi Calm Calm - N/A   Overcast
10:16 PM -34.6 °F - N/A% 30.11 in 10.0 mi Calm Calm - N/A   Overcast
10:36 PM - - N/A% 30.11 in 10.0 mi Calm Calm - N/A   Overcast
10:56 PM - - N/A% 30.10 in 10.0 mi Calm Calm - N/A   Overcast
11:16 PM -36.4 °F - N/A% 30.11 in 10.0 mi Calm Calm - N/A   Overcast